AirNav   ATP
 
 321 users online  

71J Ozark-Blackwell Field Airport
Ozark, Alabama, USA

GOING TO OZARK?


FAA INFORMATION EFFECTIVE 06 DECEMBER 2018

Location

FAA Identifier: 71J
Lat/Long: 31-25-54.5232N / 085-37-13.9221W
31-25.908720N / 085-37.232035W
31.4318120 / -85.6205339
(estimated)
Elevation: 357.9 ft. / 109.1 m (surveyed)
Variation: 04W (2015)
From city: 2 miles SE of OZARK, AL
Time zone: UTC -6 (UTC -5 during Daylight Saving Time)
Zip code: 36360

Airport Operations

Airport use: Open to the public
Activation date: 06/1956
Control tower: no
ARTCC: JACKSONVILLE CENTER
FSS: ANNISTON FLIGHT SERVICE STATION
NOTAMs facility: ANB (NOTAM-D service available)
Attendance: 0800-1700
AFT HRS SVC CALL 334-432-0039.
Wind indicator: lighted
Segmented circle: yes
Lights: ACTVT REIL RWY 13 & 31; PAPI RWY 13 & 31; MIRL RWY 13/31 - CTAF.
Beacon: white-green (lighted land airport)
Operates sunset to sunrise.

Airport Communications

CTAF/UNICOM: 122.7
CAIRNS APPROACH: 125.4 [0600-2300]
CAIRNS DEPARTURE: 125.4 [0600-2300]
WX ASOS at DHN (11 nm SE): PHONE 334-983-5999
WX AWOS-3PT at EDN (16 nm SW): 118.9 (334-347-3524)
  • APCH/DEP SVCS PRVDD BY JACKSONVILLE ARTCC ON FREQS 134.3/353.5 (DOTHAN RCAG) WHEN CAIRNS APCH/DEP CLSD.

Nearby radio navigation aids

VOR radial/distance  VOR name  Freq  Var
HEYr029/(3.8)HANCHEY VOR110.6003W
OZRr032/11.2CAIRNS VOR/DME111.2003W
RRSr310/13.1WIREGRASS VORTAC111.6002E
EDNr064/(16.6)ENTERPRISE VOR116.6003W
EUFr217/39.9EUFAULA VORTAC109.2002E

 
NDB name  Hdg/Dist  Freq  Var  ID
HANCHEY030/3.822103WHYE .... -.-- .
LOWE059/7.626903WLOR .-.. --- .-.
BOLL WEEVIL076/19.335203WBVG -... ...- --.
BLOOD138/34.536504WTOI - --- ..
SOYYA331/39.332902WSMY ... -- -.--

Airport Services

Fuel available: 100LL JET-A+
24 HR CREDIT CARD SVC AVBL.
Parking: tiedowns
Airframe service: MAJOR
Powerplant service: MAJOR
Bottled oxygen: NONE
Bulk oxygen: NONE

Runway Information

Runway 13/31

Dimensions: 5152 x 80 ft. / 1570 x 24 m
Surface: asphalt, in fair condition
Weight bearing capacity: 
Double wheel: 25.0
Runway edge lights: medium intensity
RUNWAY 13  RUNWAY 31
Latitude: 31-26.129053N31-25.688437N
Longitude: 085-37.655898W085-36.808283W
Elevation: 357.9 ft.340.8 ft.
Gradient: 0.3%0.3%
Traffic pattern: leftleft
Runway heading: 125 magnetic, 121 true305 magnetic, 301 true
Markings: nonprecision, in fair conditionnonprecision, in fair condition
Visual slope indicator: 4-light PAPI on right (3.60 degrees glide path)4-light PAPI on left (3.00 degrees glide path)
Runway end identifier lights: yesyes
Touchdown point: yes, no lightsyes, no lights
Obstructions: none19 ft. tree, 418 ft. from runway, 109 ft. right of centerline, 11:1 slope to clear

Airport Ownership and Management from official FAA records

Ownership: Publicly-owned
Owner: TOWN OF OZARK
P.O. BOX 1987
OZARK, AL 36361
Phone 334-774-5393
Manager: DENSIE ELLIS
3269 HWY 231 S
OZARK, AL 36360
Phone 334 445 5045

Airport Operational Statistics

Aircraft based on the field: 29
Single engine airplanes: 18
Multi engine airplanes: 2
Helicopters: 9
    
Aircraft operations: avg 251/day *
59% transient general aviation
41% local general aviation
* for 12-month period ending 01 January 2018

Additional Remarks

LOW FLYING HOP IN TFC PAT.
RWY & PARL TWYS CNTRLN SEPN IS 240 FT.
PILOTS DEPG BLACKWELL VFR TO THE EAST OR NORTH RMN AT 1500 FT MSL OR BLW TIL APRXLY 5 MI FM THE ARPT TO AVOID CONFLICT WITH TFC ON IFR APCH TO THE DOTHAN ARPT.

Instrument Procedures

NOTE: All procedures below are presented as PDF files. If you need a reader for these files, you should download the free Adobe Reader.

NOT FOR NAVIGATION. Please procure official charts for flight.
FAA instrument procedures published for use from 6 December 2018 at 0901Z to 3 January 2019 at 0900Z.

 
IAPs - Instrument Approach Procedures
RNAV (GPS) RWY 13   download (187KB)
RNAV (GPS) RWY 31   download (180KB)
VOR RWY 31   download (213KB)
NOTE: Special Take-Off Minimums/Departure Procedures apply   download (329KB)

Other nearby airports with instrument procedures:

KHEY - Hanchey Army Heliport (Fort Rucker) (5 nm S)
KLOR - Lowe Army Heliport (Fort Rucker) (8 nm SW)
KOZR - Cairns Army Airfield (Fort Rucker) (11 nm SW)
KDHN - Dothan Regional Airport (11 nm SE)
0J6 - Headland Municipal Airport (16 nm E)
KEDN - Enterprise Municipal Airport (16 nm SW)
 
Loc | Ops | Rwys | IFR | FBO | Links
Com | Nav | Svcs | Stats | Notes


 
Area around 71J (Ozark-Blackwell Field Airport)
 
Road maps at: MapQuest Bing Google
 
Aerial photo
WARNING: Photo may not be current or correct
Aerial photo of 71J (Ozark-Blackwell Field Airport)
Photo by Bill Mansfield
Photo taken 20-Aug-2006
on final for runway 30

Do you have a better or more recent aerial photo of Ozark-Blackwell Field Airport that you would like to share? If so, please send us your photo.

 
Sectional chart

 
Airport distance calculator
Flying to Ozark-Blackwell Field Airport? Find the distance to fly.

From to 71J

Sunrise and sunset
Times for 15-Dec-2018
 Local
(UTC-6)
 Zulu
(UTC)
Morning civil twilight06:0812:08
Sunrise06:3512:35
Sunset16:4022:40
Evening civil twilight17:0723:07

Current date and time
Zulu (UTC)  15-Dec-2018 09:15:13
Local (UTC-6)  15-Dec-2018 03:15:13
 
METAR
KHEY 
5nm S 
150858Z AUTO 26005KT 10SM BKN049 12/09 A2992 RMK AO2 SLP133 60000 T01150089 51010
KLOR 
8nm SW 
150858Z AUTO 19003KT 10SM OVC048 11/09 A2993 RMK AO2 SLP118 T01090092 51011
KOZR 
10nm SW 
150856Z AUTO 23004KT 10SM OVC049 11/08 A2993 RMK AO2 SLP137 T01130083 51009
KDHN 
11nm SE 
150853Z AUTO 25009KT 10SM FEW040 12/08 A2996 RMK AO2 SLP142 60000 T01170078 51007
KSXS 
12nm W 
150858Z AUTO 00000KT 10SM SCT046 10/08 A2992 RMK AO2 SLP133 T01030079 51010
KEDN 
16nm SW 
150855Z AUTO 21003KT 10SM SCT048 10/09 A2993 RMK AO2 T00950087
TAF
KOZR 
10nm SW 
150800Z 1508/1614 24008KT 9999 SCT019 BKN041 BKN050 BKN070 QNH2991INS TEMPO 1508/1512 BKN007 BECMG 1514/1515 26010G15KT 9999 OVC025 QNH2994INS BECMG 1521/1522 26012KT 9999 OVC050 QNH2999INS BECMG 1605/1606 VRB06KT 9999 BKN015 QNH3002INS TX14/1520Z TN10/1512Z
KDHN 
11nm SE 
150807Z 1508/1606 VRB05KT P6SM OVC030 TEMPO 1508/1512 BKN020 OVC030 FM151500 24010KT P6SM BKN030 FM160000 26005KT P6SM BKN025
NOTAMs
Click for the latest NOTAMs
NOTAMs are issued by the DoD/FAA and will open in a separate window not controlled by AirNav.

 

 
 

FBO, Fuel Providers, and Aircraft Ground Support

  
 Business Name 
 
 Contact 
 
 Services / Description 
 
Fuel Prices
 
Comments
  
 City of Ozark (FBO)
334-445-5045
334-432-0039
[email]
Airport management, Aviation fuel, Aircraft ground handling, Aircraft parking (ramp or tiedown), Hangars, Hangar leasing / sales, Passenger terminal and lounge, ...

More info about City of Ozark (FBO)
Shell
100LL Jet A
FS --- $3.25 
SS $3.78 --- 
 Updated 13-Dec-2018
 
   3 read write
FS=Full service
SS=Self service
Update Fuel Prices
 

Would you like to see your business listed on this page?

 If your business provides an interesting product or service to pilots, flight crews, aircraft, or users of the Ozark-Blackwell Field Airport, you should consider listing it here.  To start the listing process, click on the button below
 
Add a business
 

Other Pages about Ozark-Blackwell Field Airport

Update a link
 
Copyright © AirNav, LLC. All rights reserved. Privacy Policy  Contact